[[{"header":{"parameterUnit":"m.s-1","parameterCategory":1,"la1":30.2991,"la2":30.254,"lo1":-89.0895,"lo2":-89.0444,"dx":0.0017,"dy":0.0017,"nx":28,"ny":28,"refTime":"2023-01-22T03:00:00:Z","depth":0,"parameterNumber":2,"parameterNumberName":"U-component_of_WINDS"},"data":[0,0,0,0,0,0,0,0,0,0,0,0,0,0,0,0,0,0,0,0,0,0,0,0,0,0,0,0,0,0,0,0,0,0,0,0,0,0,0,0,0,0,0,0,0,0,0,0,0,0,0,0,0,0,0,0,0,0,-5.986,-5.986,0,-5.9899,-5.99,-5.99,-5.9732,-5.9727,-5.9722,-5.9717,-5.976,-5.9766,-5.9771,0,0,0,0,0,0,0,0,0,0,0,0,0,-5.9642,-5.9647,-5.986,-5.986,-5.9861,-5.9899,-5.99,-5.99,-5.9733,-5.9727,-5.9721,-5.9715,-5.9758,-5.9765,-5.9772,0,0,0,0,0,0,0,0,0,0,0,0,0,-5.9715,-5.9648,-5.986,-5.9782,-5.9775,-5.9899,-5.99,-5.99,-5.9734,-5.9727,-5.9719,-5.9712,-5.9756,-5.9764,-5.9773,-5.9974,0,0,-5.9799,-5.9803,0,0,0,0,0,0,0,0,-5.9711,-5.9723,-5.9793,-5.9787,-5.978,-5.9803,-5.9838,-5.9925,-5.9736,-5.975,-5.9717,-5.9709,-5.9781,-5.9787,-5.981,-5.9976,-5.9978,-5.98,-5.9805,-5.9809,-5.9811,0,0,0,0,0,0,0,-5.9706,-5.972,-5.9875,-5.9794,-5.9786,-5.9746,-5.9748,-5.9854,-5.9806,-5.9748,-5.9736,-5.9743,-5.9776,-5.9803,-5.981,-5.9979,-5.98,-5.9807,-5.9813,-5.9816,-6.0312,-6.032,0,0,0,0,0,0,-5.9711,-5.9717,-5.9874,-5.9877,-5.9726,-5.9756,-5.9758,-5.9803,-5.9805,-5.9798,-5.9749,-5.9735,-5.9792,-5.98,-5.9811,-6.0046,-5.9809,-5.9817,-5.9822,-6.0304,-6.0314,-6.0323,0,0,0,0,0,0,-5.9707,-5.9726,-5.9873,-5.9794,-5.9809,-5.9767,-5.982,-5.9808,-5.9834,-5.9805,-5.9796,-5.9785,-5.9786,-5.9799,-5.9935,-6.0046,-5.9821,-5.9829,-6.0295,-6.0307,-6.0318,-6.052,0,0,0,0,0,0,-5.9701,-5.9726,-5.9801,-5.9797,-5.9814,-5.9996,-5.9826,-5.9814,-5.9849,-5.9831,-5.9837,-5.9831,-5.9781,-5.9923,-5.9944,-6.0053,-5.9835,-6.0285,-6.03,-6.0315,-6.0503,-6.0537,-6.0566,0,0,0,0,0,-5.9694,-5.9857,-5.9806,-5.9826,-5.9907,-6.0002,-6.0012,-5.9951,-5.9859,-5.9935,-5.9916,-5.983,-6.0031,-5.9938,-5.996,-6.0074,-6.0277,-6.0296,-6.0313,-6.0489,-6.053,-6.0566,0,0,0,0,0,0,-5.9876,-5.9855,-5.9798,-5.9964,-5.9986,-5.9974,-6.0067,-5.9997,-6.0046,-6.0027,-5.9951,-5.9953,-6.0103,-6.0102,-6.0,-6.027,-6.0138,-6.0162,-6.0264,-6.0303,-6.0335,-6.0331,-5.9843,0,0,0,0,0,-5.9936,-6.0014,-5.9991,-6.014,-6.0154,-6.011,-6.0149,-6.01,-6.012,-6.0128,-6.012,-6.0143,-6.0211,-6.0257,-6.0318,-6.0503,-6.0501,-6.0592,-6.0624,-6.065,-6.0671,-6.0768,-6.0808,-6.0382,-6.0382,-6.0381,0,0,-6.006,-6.0058,-6.0112,-6.0177,-6.0188,-6.0271,-6.0118,-6.0213,-6.0274,-6.0143,-6.027,-6.0265,-6.0286,-6.0448,-6.0518,-6.0451,-6.0789,-6.0673,-6.0694,-6.07,-6.0791,-6.0831,-6.0867,-6.0394,-6.0392,-6.039,0,0,-6.0327,-6.0334,-6.0458,-6.0473,-6.0492,-6.0461,-6.0492,-6.049,-6.0481,-6.0608,-6.0511,-6.0584,-6.0703,-6.0721,-6.0747,-6.1024,-6.0946,-6.1046,-6.1211,-6.1307,-6.1341,-6.137,-6.1468,-6.1504,-6.1067,-6.1068,-6.1068,0,-6.0478,-6.0599,-6.0531,-6.0632,-6.0664,-6.0549,-6.0675,-6.0693,-6.0732,-6.0757,-6.0682,-6.0828,-6.0835,-6.0998,-6.1066,-6.1091,-6.1123,-6.1044,-6.1341,-6.137,-6.1396,-6.1489,-6.1526,-6.1079,-6.1078,-6.1077,-6.1076,0,-6.0784,-6.087,-6.0968,-6.1007,-6.105,-6.1164,-6.1114,-6.1166,-6.1114,-6.1092,-6.1223,-6.1227,-6.1287,-6.1322,-6.1273,-6.148,-6.1438,-6.1354,-6.122,-6.145,-6.1536,-6.1571,-6.1096,-6.1092,-6.1089,-6.1086,0,0,-6.1165,-6.1167,-6.1204,-6.122,-6.1234,-6.1299,-6.1408,-6.1466,-6.1512,-6.1543,-6.1632,-6.1737,-6.1659,-6.1688,-6.164,-6.1725,-6.1943,-6.1629,-6.1629,-6.1687,-6.2171,-6.2233,-6.2276,-6.1893,-6.1899,-6.1905,-6.2169,0,-6.1426,-6.1611,-6.1554,-6.174,-6.1818,-6.1712,-6.1806,-6.1826,-6.1809,-6.1873,-6.1854,-6.1929,-6.1821,-6.1838,-6.1917,-6.19,-6.2039,-6.188,-6.1975,-6.1979,-6.1971,-6.232,-6.2386,-6.2636,-6.2202,-6.2208,-6.2212,0,-6.1755,-6.1799,-6.1993,-6.1994,-6.2025,-6.2111,-6.2159,-6.2223,-6.2243,-6.2225,-6.2258,-6.2193,-6.2301,-6.2168,-6.2316,-6.2209,-6.2245,-6.2243,-6.2251,-6.2256,-6.2108,-6.2334,-6.2714,-6.2751,-6.2264,-6.226,-6.2256,0,-6.2013,-6.2121,-6.225,-6.2268,-6.2273,-6.2336,-6.2341,-6.2353,-6.2392,-6.2436,-6.246,-6.2516,-6.2547,-6.2592,-6.2544,-6.2453,-6.2699,-6.2563,-6.2687,-6.2689,-6.2742,-6.2739,-6.3132,-6.2769,-6.2768,-6.2767,-6.2767,0,-6.2309,-6.2432,-6.2366,-6.2446,-6.2581,-6.2515,-6.2651,-6.2644,-6.2656,-6.2734,-6.2646,-6.272,-6.2653,-6.2723,-6.2686,-6.2814,-6.2829,-6.2817,-6.2805,-6.2824,-6.2825,-6.2845,-6.2826,-6.2777,-6.2775,-6.2773,-6.2771,0,-6.2618,-6.2579,-6.2714,-6.2708,-6.2709,-6.2809,-6.2803,-6.2877,-6.2855,-6.2954,-6.2973,-6.2938,-6.3015,-6.2972,-6.3051,-6.3027,-6.3192,-6.3158,-6.3185,-6.3175,-6.3302,-6.329,-6.3719,-6.3772,-6.3377,-6.338,-6.3384,0,-6.2809,-6.2901,-6.2905,-6.295,-6.2961,-6.3035,-6.3074,-6.3014,-6.3059,-6.309,-6.316,-6.3229,-6.3281,-6.3409,-6.3391,-6.3451,-6.3417,-6.3564,-6.3425,-6.3441,-6.3418,-6.3413,-6.3421,-6.3591,-6.3596,-6.3599,-6.3602,0,-6.3153,-6.3129,-6.3188,-6.3242,-6.3291,-6.3331,-6.3363,-6.3405,-6.3345,-6.34,-6.3477,-6.3518,-6.3599,-6.3668,-6.3721,-6.3726,-6.3655,-6.3646,-6.3678,-6.3697,-6.3708,-6.3703,-6.3259,-6.3636,-6.3633,-6.363,-6.3628,-6.3627,-6.3407,-6.3484,-6.3499,-6.3568,-6.3586,-6.3619,-6.3688,-6.3674,-6.3737,-6.3798,-6.3759,-6.385,-6.3869,-6.3931,-6.3947,-6.4018,-6.3959,-6.4005,-6.4017,-6.4029,-6.4045,-6.3699,-6.4027,-6.4026,-6.4025,-6.4024,-6.4024,0,-6.3744,-6.3749,-6.3814,-6.3861,-6.3917,-6.3845,-6.3878,-6.3929,-6.4009,-6.4033,-6.4086,-6.4175,-6.4243,-6.4231,-6.4293,-6.4352,-6.4321,-6.437,-6.4364,-6.4367,-6.4095,-6.4061,-6.4394,-6.4394,-6.4394,-6.4394,-6.4394,-6.4394,-6.3926,-6.4052,-6.4031,-6.4166,-6.4169,-6.4257,-6.4282,-6.4312,-6.433,-6.4433,-6.4489,-6.4481,-6.449,-6.4552,-6.4612,-6.4606,-6.4633,-6.4694,-6.4677,-6.4423,-6.4386,-6.4351,-6.4318,-6.4701,-6.4701,-6.4942,-6.4945,-6.4946]},{"header":{"parameterUnit":"m.s-1","parameterCategory":1,"la1":30.2991,"la2":30.254,"lo1":-89.0895,"lo2":-89.0444,"dx":0.0017,"dy":0.0017,"nx":28,"ny":28,"refTime":"2023-01-22T03:00:00:Z","depth":0,"parameterNumber":3,"parameterNumberName":"V-component_of_WINDS"},"data":[0,0,0,0,0,0,0,0,0,0,0,0,0,0,0,0,0,0,0,0,0,0,0,0,0,0,0,0,0,0,0,0,0,0,0,0,0,0,0,0,0,0,0,0,0,0,0,0,0,0,0,0,0,0,0,0,0,0,-1.0816,-1.0815,0,-1.0716,-1.0715,-1.0713,-1.0682,-1.0683,-1.0683,-1.0684,-1.0577,-1.0574,-1.0571,0,0,0,0,0,0,0,0,0,0,0,0,0,-1.0975,-1.0972,-1.0816,-1.0815,-1.0814,-1.0716,-1.0715,-1.0713,-1.0682,-1.0683,-1.0683,-1.0684,-1.0578,-1.0575,-1.0571,0,0,0,0,0,0,0,0,0,0,0,0,0,-1.0893,-1.0971,-1.0816,-1.0787,-1.0783,-1.0716,-1.0715,-1.0713,-1.0682,-1.0683,-1.0683,-1.0684,-1.058,-1.0575,-1.057,-1.0525,0,0,-1.0555,-1.0553,0,0,0,0,0,0,0,0,-1.0898,-1.0887,-1.0792,-1.0788,-1.0784,-1.0712,-1.0731,-1.065,-1.0682,-1.072,-1.0684,-1.0685,-1.0621,-1.0613,-1.0593,-1.052,-1.0515,-1.0555,-1.0552,-1.0549,-1.0548,0,0,0,0,0,0,0,-1.0903,-1.0891,-1.0776,-1.0791,-1.0786,-1.0776,-1.0765,-1.0716,-1.0668,-1.0717,-1.0714,-1.0703,-1.0619,-1.0597,-1.059,-1.0514,-1.0555,-1.055,-1.0547,-1.0545,-1.0394,-1.0393,0,0,0,0,0,0,-1.0915,-1.0896,-1.078,-1.0773,-1.0844,-1.0772,-1.076,-1.0735,-1.0668,-1.0659,-1.0703,-1.0702,-1.0605,-1.0596,-1.0586,-1.0526,-1.055,-1.0545,-1.0542,-1.0395,-1.0394,-1.0392,0,0,0,0,0,0,-1.0918,-1.0905,-1.0784,-1.0834,-1.0818,-1.0769,-1.074,-1.0732,-1.071,-1.0658,-1.0648,-1.0689,-1.0606,-1.0593,-1.0539,-1.0522,-1.0543,-1.0538,-1.0396,-1.0394,-1.0393,-1.0407,0,0,0,0,0,0,-1.0923,-1.0906,-1.0891,-1.0834,-1.0815,-1.0741,-1.0739,-1.073,-1.0702,-1.0701,-1.0643,-1.0634,-1.0605,-1.0547,-1.0535,-1.0515,-1.0534,-1.0397,-1.0395,-1.0394,-1.0408,-1.0406,-1.0404,0,0,0,0,0,-1.0929,-1.0899,-1.089,-1.0876,-1.0795,-1.074,-1.0729,-1.0698,-1.0701,-1.0683,-1.0649,-1.0636,-1.0526,-1.0542,-1.0528,-1.0507,-1.0398,-1.0396,-1.0394,-1.0409,-1.0406,-1.0404,0,0,0,0,0,0,-1.0954,-1.0891,-1.0881,-1.0832,-1.0791,-1.0735,-1.0712,-1.0697,-1.0655,-1.0655,-1.0617,-1.0604,-1.0552,-1.0524,-1.0543,-1.0457,-1.0461,-1.0456,-1.0477,-1.0475,-1.0473,-1.0481,-1.053,0,0,0,0,0,-1.0954,-1.0917,-1.0863,-1.0824,-1.0805,-1.0762,-1.0737,-1.0716,-1.0672,-1.0655,-1.0617,-1.0574,-1.0529,-1.05,-1.0457,-1.0403,-1.0388,-1.0381,-1.038,-1.0379,-1.0374,-1.034,-1.0335,-1.0385,-1.0385,-1.0385,0,0,-1.0954,-1.0914,-1.0893,-1.0828,-1.0795,-1.0754,-1.0748,-1.0706,-1.0675,-1.0648,-1.0595,-1.0565,-1.0514,-1.046,-1.0434,-1.0434,-1.0357,-1.0375,-1.0375,-1.0371,-1.0337,-1.0332,-1.0328,-1.0383,-1.0383,-1.0383,0,0,-1.0932,-1.09,-1.0863,-1.0828,-1.0778,-1.0748,-1.0739,-1.0684,-1.0663,-1.0609,-1.0587,-1.0548,-1.0473,-1.0436,-1.0408,-1.0367,-1.0352,-1.0354,-1.0345,-1.0312,-1.0308,-1.0304,-1.0287,-1.0281,-1.035,-1.035,-1.035,0,-1.0938,-1.0878,-1.0845,-1.0804,-1.0774,-1.0748,-1.0708,-1.0676,-1.0613,-1.0592,-1.0594,-1.0496,-1.046,-1.0395,-1.0385,-1.0364,-1.0349,-1.0361,-1.0311,-1.0307,-1.0303,-1.0286,-1.028,-1.035,-1.035,-1.035,-1.035,0,-1.0885,-1.0843,-1.0819,-1.0759,-1.0726,-1.0686,-1.0645,-1.0616,-1.0596,-1.0566,-1.0509,-1.0464,-1.0409,-1.0392,-1.0374,-1.0322,-1.0324,-1.0319,-1.0323,-1.0299,-1.0282,-1.0276,-1.0351,-1.0351,-1.035,-1.035,0,0,-1.0879,-1.0799,-1.079,-1.0761,-1.07,-1.0666,-1.0623,-1.0569,-1.0543,-1.0499,-1.046,-1.0395,-1.0388,-1.0356,-1.0332,-1.0303,-1.027,-1.0301,-1.0299,-1.0295,-1.0207,-1.021,-1.0203,-1.0259,-1.0258,-1.0257,-1.021,0,-1.0848,-1.0772,-1.0739,-1.0676,-1.0634,-1.0606,-1.0568,-1.0525,-1.0494,-1.0453,-1.0418,-1.0372,-1.0369,-1.0348,-1.0318,-1.028,-1.0251,-1.0283,-1.0219,-1.0218,-1.0232,-1.0195,-1.0199,-1.0157,-1.0204,-1.0202,-1.0202,0,-1.0803,-1.0758,-1.0691,-1.0632,-1.0613,-1.058,-1.0525,-1.0487,-1.0436,-1.0415,-1.0377,-1.0354,-1.0304,-1.031,-1.0239,-1.0261,-1.0233,-1.0209,-1.0207,-1.0199,-1.0208,-1.0184,-1.0143,-1.0136,-1.0191,-1.0192,-1.0193,0,-1.0803,-1.0726,-1.0674,-1.065,-1.0581,-1.0557,-1.0526,-1.0476,-1.0444,-1.0396,-1.0374,-1.0321,-1.0291,-1.0249,-1.0211,-1.022,-1.0141,-1.0146,-1.012,-1.0121,-1.0105,-1.0106,-1.0057,-1.0089,-1.0089,-1.0089,-1.0089,0,-1.0771,-1.0731,-1.0673,-1.0641,-1.0593,-1.0554,-1.0507,-1.0474,-1.0429,-1.0388,-1.036,-1.0322,-1.0274,-1.0229,-1.0198,-1.0141,-1.0129,-1.0109,-1.0101,-1.011,-1.0113,-1.0091,-1.0092,-1.0087,-1.0088,-1.0088,-1.0088,0,-1.0764,-1.0724,-1.0665,-1.0603,-1.0586,-1.0553,-1.0498,-1.0465,-1.0431,-1.038,-1.0365,-1.0312,-1.0257,-1.0214,-1.0143,-1.0122,-1.0061,-1.0053,-1.0078,-1.0074,-1.005,-1.0052,-0.9984,-0.9972,-1.0014,-1.0013,-1.0013,0,-1.0746,-1.0714,-1.0647,-1.0618,-1.0588,-1.0541,-1.0508,-1.0467,-1.0433,-1.037,-1.0343,-1.0286,-1.0238,-1.015,-1.0104,-1.0048,-1.0037,-1.0017,-1.0029,-1.0038,-1.0034,-1.0036,-1.0031,-1.0016,-1.0016,-1.0015,-1.0015,0,-1.0718,-1.0699,-1.0653,-1.0599,-1.056,-1.0515,-1.0469,-1.0446,-1.0396,-1.0359,-1.0302,-1.0265,-1.019,-1.0132,-1.007,-1.0036,-1.0016,-1.0012,-1.0002,-1.0012,-1.0026,-1.0015,-1.0072,-1.0014,-1.0014,-1.0014,-1.0014,-1.0014,-1.0703,-1.0672,-1.0619,-1.0567,-1.0528,-1.0485,-1.0449,-1.041,-1.0363,-1.0299,-1.0277,-1.0217,-1.0162,-1.0077,-1.0042,-0.9992,-0.9991,-0.9979,-0.9975,-0.9972,-0.9972,-1.0035,-0.9981,-0.9981,-0.9981,-0.9981,-0.9981,0,-1.0672,-1.0636,-1.0589,-1.0525,-1.0483,-1.0468,-1.0415,-1.0381,-1.0329,-1.028,-1.0232,-1.0164,-1.0107,-1.0055,-0.9994,-0.9964,-0.9953,-0.9949,-0.995,-0.9942,-0.9977,-0.9991,-0.9959,-0.9959,-0.9959,-0.9959,-0.9959,-0.9959,-1.0651,-1.0596,-1.0569,-1.0492,-1.0456,-1.0397,-1.0368,-1.0326,-1.0287,-1.0212,-1.0164,-1.0131,-1.0078,-1.0013,-0.9958,-0.9944,-0.9922,-0.992,-0.9903,-0.9937,-0.994,-0.9943,-0.9955,-0.9916,-0.9916,-0.9871,-0.9871,-0.9871]}]]